User: anonymous
Location: Girdwood
(60.9430°N, 149.1660°W)
Time: 15:26:50
(UTC-08:00)
Language:

Iridium 86 - Orbit

View from above orbital plane
View from above orbital plane
View from above satellite
View from above satellite

Ground track
Ground track

The orbit data is extracted from the following two-line orbital elements,

1 25528U 98066B   14203.28292306  .00000183  00000-0  58292-4 0   592
2 25528 086.3931 073.3595 0002051 106.3230 253.8191 14.34214904827300
Epoch (UTC): 22 July 2014 06:47:24
Eccentricity: 0.0002051
inclination: 86.3931°
perigee height: 776 km
apogee height: 779 km
right ascension of ascending node: 73.3595°
argument of perigee: 106.3230°
revolutions per day: 14.34214904
mean anomaly at epoch: 253.8191°
orbit number at epoch: 82730

The dashed part of the orbit path shows where the satellite is in the earth's shadow,  

DLR